OpenBCM V1.13 (Linux)

Packet Radio Mailbox

DB0FHN

[JN59NK Nuernberg]

 Login: GUEST





  
I0OJJ  > KEPS     04.03.25 06:33l 326 Lines 15593 Bytes #999 (0) @ AMSAT
BID : ORB25063.1
Read: DJ6UX GUEST
Subj: 2Line Orbital Elements 25063.AMSAT
Path: DB0FHN<DB0LHR<OK1TOR<OE2XZR<OE6XPE<DB0ERF<DK0WUE<PD0LPM<PI8ZTM<I0OJJ
Sent: 250304/0345z @:I0OJJ.ITA.EU [Rome] obcm1.08-6-g5b69
From: I0OJJ @ I0OJJ.ITA.EU (Gustavo)
To:   KEPS @ AMSAT
X-Info: This message was generated automatically


QST de W1STR

AMSAT Orbital Elements for Amateur Satellites in TLE Format
From Orbital Analysis Office
New England Sci-Tech STEM Education Center
Natick, MA March 04, 2025
To all radio amateurs


These element sets describe the orbits of various satellites 
in use by the amateur radio community. For details see:
www.amsat.org/keplerian-elements-formats/

A daily update of element sets is available at:
www.amsat.org/tle/daily-bulletin.txt
or without bulletin text:
www.amsat.org/tle/dailytle.txt


AO-07
1 07530U 74089B   25062.50789797 -.00000051  00000-0 -26302-4 0  9995
2 07530 101.9949  65.7237 0011948 310.2197 174.6709 12.53686695301533
UO-11
1 14781U 84021B   25062.83494758  .00002976  00000-0  32338-3 0  9995
2 14781  97.7432  31.2393 0006424 308.3589  51.7050 14.88824891208098
AO-27
1 22825U 93061C   25062.17319103  .00000254  00000-0  11434-3 0  9995
2 22825  98.7505 123.1833 0009102  47.0962 313.0983 14.30740886639642
FO-29
1 24278U 96046B   25062.71285101  .00000006  00000-0  44075-4 0  9998
2 24278  98.5856 329.4425 0349026 236.0261 120.7257 13.53239341409785
NOAA-15
1 25338U 98030A   25062.78399913  .00000341  00000-0  15811-3 0  9992
2 25338  98.5467  90.2216 0009147 286.9317  73.0861 14.26899326394459
GO-32
1 25397U 98043D   25062.55318912  .00000245  00000-0  12618-3 0  9991
2 25397  98.9603  39.6801 0002202 111.8250 248.3162 14.24264923384338
ISS
1 25544U 98067A   25062.66313727  .00016275  00000-0  29551-3 0  9996
2 25544  51.6371 109.6890 0005902 339.6584 166.5761 15.49702064498799
NO-44
1 26931U 01043C   25062.14599939  .00000491  00000-0  21514-3 0  9993
2 26931  67.0520  22.3256 0005818 265.7436  94.3001 14.31640205223019
SO-50
1 27607U 02058C   25062.60017798  .00002374  00000-0  31848-3 0  9993
2 27607  64.5539 142.8699 0044843 358.2509   1.8432 14.81066522194715
CO-55
1 27844U 03031E   25062.58635153  .00000773  00000-0  35652-3 0  9994
2 27844  98.6796  72.1169 0010809 110.0796 250.1547 14.23851650124691
CO-57
1 27848U 03031J   25062.48954490  .00000660  00000-0  31101-3 0  9995
2 27848  98.6824  72.0999 0010540 125.5534 234.6629 14.23207337124415
RS-22
1 27939U 03042A   25062.80589781  .00002371  00000-0  38700-3 0  9994
2 27939  98.3168 229.9699 0010901 323.4330 147.9392 14.71868757146440
NOAA-18
1 28654U 05018A   25062.80137079  .00000387  00000-0  22879-3 0  9998
2 28654  98.8483 143.3635 0014776  50.6275 309.6204 14.13531865 19935
CO-58
1 28895U 05043F   25062.34570197  .00003439  00000-0  57703-3 0  9999
2 28895  98.2322 205.5985 0014027 256.9623 103.0017 14.70313410 32507
CO-65
1 32785U 08021C   25062.18512874  .00008404  00000-0  63475-3 0  9991
2 32785  97.7770  32.7968 0010425 173.4690 186.6672 15.02603943914363
AAUSAT2
1 32788U 08021F   25062.71459977  .00116775  00000-0  18980-2 0  9998
2 32788  97.6071  55.3449 0004495  83.4554 276.7209 15.52273270918130
CO-66
1 32791U 08021J   25062.42372290  .00017703  00000-0  95717-3 0  9997
2 32791  97.7208  40.5798 0006490 125.6190 234.5647 15.14724862915694
RS-30
1 32953U 08025A   25062.78060485  .00000021  00000-0  77722-4 0  9992
2 32953  82.5000 288.0221 0018645 259.2562 100.6419 12.43159670761370
NOAA-19
1 33591U 09005A   25062.79181677  .00000321  00000-0  19531-3 0  9994
2 33591  99.0098 126.9036 0012789 280.0936  79.8793 14.13299684828299
SRMSAT
1 37841U 11058D   25062.24906517  .00000628  00000-0  19803-3 0  9997
2 37841  19.9731  29.5680 0011873  64.1592 324.0137 14.11374996691205
ZACUBE-1
1 39417U 13066B   25062.86394038  .00009241  00000-0  83321-3 0  9992
2 39417  97.7693  20.5655 0046362  20.7841 339.5251 14.94943955610304
Delfi-N3xt
1 39428U 13066N   25062.47913450  .00011763  00000-0  12582-2 0  9998
2 39428  97.8368 341.3705 0087367 324.5119  35.0303 14.86084357604671
GOMX-1
1 39430U 13066Q   25062.70105082  .00003373  00000-0  53346-3 0  9993
2 39430  97.6971 287.3313 0134666 145.0834 215.9297 14.66964749601051
LO-74
1 39440U 13066AA  25062.38523313  .00005946  00000-0  62238-3 0  9997
2 39440  97.8406   7.7774 0065074 142.3397 218.2402 14.88416304606829
AO-73
1 39444U 13066AE  25062.43793607  .00013354  00000-0  10635-2 0  9997
2 39444  97.7551  24.2748 0041762   0.6796 359.4477 14.99799291608862
DTUSAT-2
1 40030U 14033W   25062.90365179  .00012196  00000-0  84194-3 0  9991
2 40030  98.0465  30.2145 0011234  42.0793 318.1294 15.05884183582198
EO-80
1 40032U 14033Y   25062.46402935  .00011554  00000-0  79663-3 0  9998
2 40032  98.0333  29.5446 0008154 346.8606  13.2406 15.05969579581598
LILACSAT-2
1 40908U 15049K   25062.78608480  .00015302  00000-0  44440-3 0  9996
2 40908  97.5155  80.9428 0011316 142.6041 217.5992 15.35521965523205
IO-86
1 40931U 15052B   25038.81889873  .00001817  00000-0  15548-3 0  9993
2 40931   6.0001 108.1159 0012838 187.7041 172.2889 14.78568669506492
Horyu-4
1 41340U 16012D   25062.69118294  .00026622  00000-0  86607-3 0  9995
2 41340  30.9997  67.4789 0007189 137.2574 222.8630 15.30655931497748
Lapan A3
1 41603U 16040E   25062.81617344  .00005593  00000-0  20250-3 0  9998
2 41603  97.1402  71.3153 0009280 255.4498 104.5713 15.28742657482849
CAS-2T
1 41847U 16066G   25062.24096964  .00002732  00000-0  39541-3 0  9997
2 41847  98.4284 137.5506 0348704 115.8721 247.8858 14.43062150436831
CAS-4B
1 42759U 17034B   25062.74415138  .00047141  00000-0  83152-3 0  9999
2 42759  43.0105 179.1662 0017960 324.1586  35.8068 15.49471512427356
CAS-4A
1 42761U 17034D   25062.76841734  .00056504  00000-0  97456-3 0  9994
2 42761  43.0141 176.9036 0019024 329.8895  30.0870 15.50015594427373
TechnoSat
1 42829U 17042E   25062.73146381  .00005545  00000-0  44306-3 0  9996
2 42829  97.3897 236.1570 0011960 255.2864 104.7035 15.00565044416048
AO-91
1 43017U 17073E   25062.56996556  .00010636  00000-0  56696-3 0  9990
2 43017  97.5448 295.8840 0181862 139.4823 222.0107 15.02155330394483
S-Net D
1 43186U 18014G   25062.29794202  .00006768  00000-0  41842-3 0  9995
2 43186  97.5705 326.2671 0008774 191.3674 168.7359 15.10138074387536
S-Net B
1 43187U 18014H   25062.16963535  .00006173  00000-0  38216-3 0  9990
2 43187  97.5715 326.1071 0009639 187.3518 172.7571 15.10120735387518
S-Net A
1 43188U 18014J   25062.29864353  .00006607  00000-0  40851-3 0  9993
2 43188  97.5716 326.3728 0009675 187.3075 172.8014 15.10141549387530
S-Net C
1 43189U 18014K   25062.30433433  .00006548  00000-0  40496-3 0  9996
2 43189  97.5740 326.3751 0011318 181.5367 178.5830 15.10119520386083
Ten-Koh
1 43677U 18084G   25062.41618837  .00005943  00000-0  48705-3 0  9999
2 43677  98.0914 230.7616 0009868 230.9568 129.0776 14.99635854345524
PO-101
1 43678U 18084H   25062.79770766  .00004253  00000-0  37024-3 0  9996
2 43678  98.0946 235.2718 0008125 250.5394 109.4949 14.97477754345742
QO-100
1 43700U 18090A   25062.83864242  .00000140  00000-0  00000+0 0  9998
2 43700   0.0296 256.0690 0001184 100.3117 133.1591  1.00269620 23204
MinXSS-2
1 43758U 18099A   25062.15006787  .00017508  00000-0  78858-3 0  9993
2 43758  97.5144 128.1118 0013874 140.8047 219.4196 15.21041145341989
AO-95
1 43770U 18099N   25062.69841270  .00012437  00000-0  68034-3 0  9991
2 43770  97.5056 121.9771 0011613 186.1596 173.9495 15.14346250341727
RANGE-A
1 43773U 18099R   25062.09263036  .00007193  00000-0  47655-3 0  9995
2 43773  97.4626 113.3681 0012203 164.8484 195.3112 15.07535221341377
MOVE-II
1 43780U 18099Y   25062.12513926  .00067703  00000-0  14292-2 0  9996
2 43780  97.4790 132.7951 0004238 157.1503 202.9935 15.44955910342469
SNUSat 2
1 43782U 18099AA  25062.69730976  .00010963  00000-0  63713-3 0  9995
2 43782  97.4745 119.4914 0013786 130.3746 229.8691 15.12182974341690
SnugLite
1 43784U 18099AC  25062.08816936  .00012070  00000-0  65589-3 0  9995
2 43784  97.4562 118.2883 0004857 130.7422 229.4233 15.14634807341715
ITASat 1
1 43786U 18099AE  25062.60439708  .00008365  00000-0  50512-3 0  9995
2 43786  97.4710 119.1758 0015254 179.0172 181.1091 15.10855516341651
EAGLET 1
1 43790U 18099AJ  25062.11009768  .00006597  00000-0  43628-3 0  9990
2 43790  97.4902 118.9323 0012904 162.7099 197.4571 15.07627593341224
ESEO
1 43792U 18099AL  25062.56014935  .00003747  00000-0  29032-3 0  9990
2 43792  97.4581 113.8915 0011486 131.9461 228.2745 15.01948906341106
CSIM
1 43793U 18099AM  25062.17434596  .00074095  00000-0  15465-2 0  9995
2 43793  97.4970 134.8688 0006358 129.4196 230.7617 15.45251309342310
JO-97
1 43803U 18099AX  25062.12204047  .00014365  00000-0  72278-3 0  9998
2 43803  97.4798 122.2347 0009036 127.4501 232.7555 15.17291505341826
Suomi 100
1 43804U 18099AY  25062.12598202  .00011955  00000-0  63454-3 0  9996
2 43804  97.4869 121.7765 0014281 128.8678 231.3831 15.15398113341779
ISAT
1 43879U 18111D   25062.75124445  .00024116  00000-0  98886-3 0  9996
2 43879  97.6016 335.3355 0010144 165.7538 194.3987 15.24208157336743
UWE-4
1 43880U 18111E   25062.70544608  .00019789  00000-0  88282-3 0  9999
2 43880  97.5957 334.3708 0012819 182.3672 177.7504 15.21356937336729
Sparrow
1 43881U 18111F   25061.81915668  .00024238  00000-0  96833-3 0  9995
2 43881  97.6150 336.9202 0006154 206.4092 153.6833 15.25112255338707
Prox-1
1 44339U 19036A   25062.08488895  .00013012  00000-0  17812-2 0  9995
2 44339  23.9981 347.3751 0007371  27.5107 332.5779 14.76701442303421
SONATE
1 44400U 19038Q   25062.77784756  .00079483  00000-0  90910-3 0  9992
2 44400  97.7080  79.0985 0006941 232.3312 127.7316 15.61870739314179
Taurus 1
1 44530U 19059C   25062.84447548  .00011019  00000-0  21359-2 0  9993
2 44530  98.5934 197.8251 0009146 331.5160  28.5539 14.63415344289633
